When you browse on this site, cookies collect data to enhance your experience and personalize the content and advertising you see.
Visit our Privacy Policy to learn more. By continuing to use the site, you agree to this use of cookies and data.
  • In Österreich
  • Länderverzeichnis
  • Für 7 Tage
  • Wassertemperatur
  • Wetterkarte
  • News
  • Widgets
  • user-avatar
    Anmelden

    Stündliche Wetter Senaki

    Heute, 18 Januar, Samstag

    Zeit Temperatur Niederschläge Wind Luftdruck Luftfeuchtigkeit
    00:00 +5°C° 0 mm 1 m/S 766 mmHg 71%
    01:00 +4°C° 0 mm 1 m/S 765 mmHg 71%
    02:00 +4°C° 0 mm 1 m/S 765 mmHg 72%
    03:00 +4°C° 0 mm 1 m/S 766 mmHg 74%
    04:00 +4°C° 0 mm 1 m/S 766 mmHg 74%
    05:00 +4°C° 0 mm 1 m/S 766 mmHg 74%
    06:00 +3°C° 0 mm 1 m/S 765 mmHg 74%
    07:00 +4°C° 0 mm 1 m/S 765 mmHg 73%
    08:00 +4°C° 0 mm 1 m/S 765 mmHg 71%
    09:00 +5°C° 0 mm 1 m/S 765 mmHg 69%
    10:00 +6°C° 0 mm 1 m/S 765 mmHg 66%
    11:00 +7°C° 0 mm 1 m/S 764 mmHg 63%
    12:00 +9°C° 0 mm 1 m/S 764 mmHg 59%
    13:00 +9°C° 0 mm 1 m/S 764 mmHg 59%
    14:00 +9°C° 0 mm 1 m/S 763 mmHg 59%
    15:00 +9°C° 0 mm 0 m/S 763 mmHg 59%
    16:00 +8°C° 0 mm 0 m/S 763 mmHg 64%
    17:00 +7°C° 0 mm 0 m/S 764 mmHg 68%
    18:00 +6°C° 0 mm 0 m/S 764 mmHg 73%
    19:00 +5°C° 0 mm 0 m/S 764 mmHg 74%
    20:00 +6°C° 0 mm 1 m/S 764 mmHg 76%
    21:00 +5°C° 0 mm 1 m/S 765 mmHg 77%
    22:00 +5°C° 0 mm 1 m/S 764 mmHg 77%
    23:00 +5°C° 0 mm 1 m/S 764 mmHg 78%

    Morgen, 19 Januar, Sonntag

    Zeit Temperatur Niederschläge Wind Luftdruck Luftfeuchtigkeit
    00:00 +4°C° 0 mm 1 m/S 764 mmHg 78%
    01:00 +4°C° 0 mm 1 m/S 764 mmHg 77%
    02:00 +4°C° 0 mm 1 m/S 764 mmHg 75%
    03:00 +4°C° 0 mm 1 m/S 764 mmHg 74%
    04:00 +3°C° 0 mm 1 m/S 764 mmHg 73%
    05:00 +3°C° 0 mm 1 m/S 764 mmHg 71%
    06:00 +3°C° 0 mm 1 m/S 764 mmHg 70%
    07:00 +3°C° 0 mm 1 m/S 764 mmHg 67%
    08:00 +4°C° 0 mm 1 m/S 764 mmHg 64%
    09:00 +4°C° 0 mm 2 m/S 764 mmHg 61%
    10:00 +5°C° 0 mm 2 m/S 764 mmHg 56%
    11:00 +7°C° 0 mm 2 m/S 763 mmHg 52%
    12:00 +8°C° 0 mm 3 m/S 763 mmHg 47%
    13:00 +9°C° 0 mm 3 m/S 763 mmHg 47%
    14:00 +9°C° 0 mm 2 m/S 763 mmHg 46%
    15:00 +9°C° 0 mm 2 m/S 763 mmHg 45%
    16:00 +8°C° 0 mm 2 m/S 763 mmHg 52%
    17:00 +8°C° 0 mm 1 m/S 764 mmHg 59%
    18:00 +6°C° 0 mm 1 m/S 764 mmHg 66%
    19:00 +6°C° 0 mm 1 m/S 765 mmHg 67%
    20:00 +5°C° 0 mm 1 m/S 765 mmHg 69%
    21:00 +5°C° 0 mm 1 m/S 766 mmHg 71%
    22:00 +5°C° 0 mm 1 m/S 766 mmHg 70%
    23:00 +5°C° 0 mm 1 m/S 766 mmHg 70%

    übermorgen, 20 Januar, Montag

    Zeit Temperatur Niederschläge Wind Luftdruck Luftfeuchtigkeit
    00:00 +3°C° 0 mm 2 m/S 766 mmHg 69%
    01:00 +3°C° 0 mm 2 m/S 767 mmHg 69%
    02:00 +3°C° 0 mm 2 m/S 767 mmHg 68%
    03:00 +3°C° 0 mm 2 m/S 767 mmHg 68%
    04:00 +3°C° 0 mm 2 m/S 767 mmHg 67%
    05:00 +3°C° 0 mm 2 m/S 767 mmHg 67%
    06:00 +2°C° 0 mm 2 m/S 767 mmHg 66%
    07:00 +3°C° 0 mm 2 m/S 767 mmHg 65%
    08:00 +3°C° 0 mm 2 m/S 768 mmHg 63%
    09:00 +4°C° 0 mm 2 m/S 768 mmHg 61%
    10:00 +5°C° 0 mm 2 m/S 767 mmHg 58%
    11:00 +7°C° 0 mm 2 m/S 767 mmHg 54%
    12:00 +8°C° 0 mm 2 m/S 766 mmHg 51%
    13:00 +9°C° 0 mm 2 m/S 766 mmHg 51%
    14:00 +10°C° 0 mm 1 m/S 766 mmHg 52%
    15:00 +10°C° 0 mm 1 m/S 766 mmHg 52%
    16:00 +9°C° 0 mm 1 m/S 766 mmHg 59%
    17:00 +8°C° 0 mm 1 m/S 767 mmHg 65%
    18:00 +7°C° 0 mm 1 m/S 767 mmHg 72%
    19:00 +6°C° 0.1 mm 1 m/S 768 mmHg 75%
    20:00 +6°C° 0.1 mm 1 m/S 768 mmHg 79%
    21:00 +6°C° 0.1 mm 1 m/S 768 mmHg 82%
    22:00 +6°C° 0.4 mm 1 m/S 768 mmHg 82%
    23:00 +6°C° 0.4 mm 1 m/S 768 mmHg 83%

    21 Januar, Dienstag

    Zeit Temperatur Niederschläge Wind Luftdruck Luftfeuchtigkeit
    00:00 +6°C° 0.4 mm 1 m/S 768 mmHg 83%
    01:00 +6°C° 0.5 mm 1 m/S 768 mmHg 84%
    02:00 +6°C° 0.5 mm 1 m/S 768 mmHg 85%
    03:00 +5°C° 0.5 mm 1 m/S 768 mmHg 87%
    04:00 +5°C° 0.3 mm 1 m/S 768 mmHg 87%
    05:00 +5°C° 0.3 mm 1 m/S 768 mmHg 88%
    06:00 +5°C° 0.3 mm 1 m/S 768 mmHg 88%
    07:00 +5°C° 0.1 mm 1 m/S 768 mmHg 87%
    08:00 +5°C° 0.1 mm 1 m/S 768 mmHg 86%
    09:00 +5°C° 0.1 mm 1 m/S 768 mmHg 86%
    10:00 +6°C° 0.1 mm 1 m/S 768 mmHg 82%
    11:00 +7°C° 0.1 mm 1 m/S 768 mmHg 78%
    12:00 +8°C° 0.1 mm 1 m/S 767 mmHg 75%
    13:00 +7°C° 0.3 mm 2 m/S 767 mmHg 76%
    14:00 +7°C° 0.3 mm 2 m/S 767 mmHg 78%
    15:00 +7°C° 0.3 mm 3 m/S 767 mmHg 80%
    16:00 +5°C° 0.5 mm 3 m/S 767 mmHg 83%
    17:00 +5°C° 0.5 mm 3 m/S 768 mmHg 86%
    18:00 +4°C° 0.5 mm 3 m/S 768 mmHg 88%
    19:00 +5°C° 0.6 mm 2 m/S 768 mmHg 88%
    20:00 +5°C° 0.6 mm 2 m/S 769 mmHg 87%
    21:00 +6°C° 0.6 mm 1 m/S 769 mmHg 87%
    22:00 +6°C° 0.4 mm 1 m/S 769 mmHg 88%
    23:00 +6°C° 0.4 mm 1 m/S 769 mmHg 88%

    22 Januar, Mittwoch

    Zeit Temperatur Niederschläge Wind Luftdruck Luftfeuchtigkeit
    00:00 +5°C° 0.4 mm 2 m/S 769 mmHg 89%
    01:00 +5°C° 0.4 mm 2 m/S 769 mmHg 89%
    02:00 +5°C° 0.4 mm 2 m/S 769 mmHg 88%
    03:00 +5°C° 0.4 mm 2 m/S 769 mmHg 88%
    04:00 +4°C° 0.3 mm 2 m/S 769 mmHg 89%
    05:00 +4°C° 0.3 mm 2 m/S 768 mmHg 90%
    06:00 +4°C° 0.3 mm 2 m/S 768 mmHg 90%
    07:00 +4°C° 0.3 mm 2 m/S 768 mmHg 90%
    08:00 +4°C° 0.3 mm 2 m/S 768 mmHg 90%
    09:00 +4°C° 0.3 mm 2 m/S 768 mmHg 90%
    10:00 +5°C° 0.2 mm 2 m/S 768 mmHg 88%
    11:00 +4°C° 0.2 mm 3 m/S 767 mmHg 86%
    12:00 +5°C° 0.2 mm 3 m/S 766 mmHg 84%
    13:00 +5°C° 0.2 mm 3 m/S 766 mmHg 82%
    14:00 +5°C° 0.2 mm 3 m/S 765 mmHg 81%
    15:00 +5°C° 0.2 mm 3 m/S 765 mmHg 79%
    16:00 +5°C° 0.3 mm 3 m/S 765 mmHg 81%
    17:00 +5°C° 0.3 mm 2 m/S 765 mmHg 83%
    18:00 +5°C° 0.3 mm 2 m/S 765 mmHg 85%
    19:00 +5°C° 0.3 mm 2 m/S 765 mmHg 86%
    20:00 +6°C° 0.3 mm 1 m/S 764 mmHg 88%
    21:00 +5°C° 0.3 mm 1 m/S 764 mmHg 90%
    22:00 +5°C° 0.8 mm 1 m/S 763 mmHg 90%
    23:00 +5°C° 0.8 mm 1 m/S 763 mmHg 90%

    23 Januar, Donnerstag

    Zeit Temperatur Niederschläge Wind Luftdruck Luftfeuchtigkeit
    00:00 +5°C° 0.8 mm 1 m/S 763 mmHg 90%
    01:00 +4°C° 1.6 mm 2 m/S 762 mmHg 89%
    02:00 +3°C° 1.6 mm 3 m/S 762 mmHg 88%
    03:00 +3°C° 1.6 mm 3 m/S 762 mmHg 87%
    04:00 +3°C° 1.7 mm 4 m/S 761 mmHg 88%
    05:00 +3°C° 1.7 mm 4 m/S 761 mmHg 89%
    06:00 +2°C° 1.7 mm 5 m/S 760 mmHg 91%
    07:00 +2°C° 2.8 mm 5 m/S 760 mmHg 90%
    08:00 +2°C° 2.8 mm 5 m/S 759 mmHg 90%
    09:00 +3°C° 2.8 mm 5 m/S 759 mmHg 90%
    10:00 +3°C° 4.3 mm 5 m/S 758 mmHg 91%
    11:00 +3°C° 4.3 mm 6 m/S 757 mmHg 92%
    12:00 +3°C° 4.3 mm 6 m/S 757 mmHg 94%
    13:00 +3°C° 4.5 mm 6 m/S 756 mmHg 93%
    14:00 +3°C° 4.5 mm 6 m/S 756 mmHg 93%
    15:00 +3°C° 4.5 mm 6 m/S 756 mmHg 93%
    16:00 +3°C° 2.5 mm 6 m/S 756 mmHg 91%
    17:00 +3°C° 2.5 mm 6 m/S 756 mmHg 90%
    18:00 +3°C° 2.5 mm 5 m/S 757 mmHg 88%
    19:00 +3°C° 0.6 mm 5 m/S 757 mmHg 85%
    20:00 +3°C° 0.6 mm 5 m/S 758 mmHg 82%
    21:00 +4°C° 0.6 mm 4 m/S 758 mmHg 79%
    22:00 +2°C° 0.2 mm 5 m/S 759 mmHg 77%
    23:00 +2°C° 0.2 mm 5 m/S 760 mmHg 75%
    Mehr zeigen